Wind_Speed
12 11 11 11 11 10 11 11 11 11 11 11 10 8 7 6 6 7 7 8 8 7 8 8 9 10 10 10 10 9 8 6 5 6 7 8 8 8 7 9 10 11 13 14 14 14 14 16 15 14 13 15 20 18 16 18 16 16 18 17 18 16 12 11 11 10 8 9 11 14 13 10 10 11 11 9 7 7 6 6 7 10 9 6 5 6 6 4
11 11 11 11 11 11 11 11 11 11 11 11 11 9 8 7 7 7 7 8 8 8 8 9 9 10 10 10 10 10 9 7 5 5 6 8 7 7 7 8 10 10 13 14 16 14 12 13 14 14 11 10 18 16 12 15 15 16 18 18 18 16 15 13 12 10 8 7 10 13 13 10 9 10 9 7 7 7 6 6 8 9 9 7 7 6 6 7
11 11 12 11 11 12 12 11 11 11 12 12 11 10 9 8 7 7 7 8 9 9 9 9 10 10 10 10 11 11 10 8 5 5 6 7 7 7 7 9 10 10 13 16 18 17 15 13 12 12 8 6 12 12 9 11 13 15 18 20 18 15 14 13 12 11 9 9 9 11 11 8 7 8 7 6 6 6 6 7 7 7 8 9 8 8 8 8
11 11 11 11 12 12 12 12 12 11 12 12 12 11 10 9 8 7 7 8 9 10 10 10 10 10 10 10 11 11 11 9 7 6 5 6 8 8 8 9 9 8 12 18 20 21 21 17 14 8 7 8 8 9 10 9 12 15 16 18 19 16 15 13 11 10 9 8 8 8 8 7 6 6 6 6 6 5 6 7 7 6 7 8 8 7 7 7
11 11 11 11 11 12 12 12 12 12 11 12 12 11 10 10 9 8 7 8 9 10 10 11 11 11 11 11 11 11 11 10 8 8 6 5 7 7 8 9 9 8 11 16 18 20 21 22 16 4 4 10 5 6 11 11 11 13 14 16 18 17 16 15 12 11 9 7 7 6 6 7 5 3 4 5 5 6 6 7 8 6 6 6 7 6 6 6
11 11 11 11 11 12 12 12 12 12 12 12 12 11 11 10 10 9 8 8 8 10 11 11 12 11 11 11 11 12 12 10 9 10 8 6 7 8 7 8 10 10 11 12 14 16 18 22 18 7 4 9 3 6 11 12 12 12 13 14 18 18 16 16 15 13 11 9 8 7 6 7 6 5 4 3 3 4 5 6 8 7 6 6 6 6 6 6
11 11 10 10 10 11 12 12 12 12 12 12 12 11 11 11 10 10 9 8 8 9 11 12 12 12 12 12 12 13 13 11 9 9 8 7 8 9 7 8 9 11 9 8 9 12 15 19 18 11 6 4 3 7 8 12 13 12 15 15 16 18 16 17 16 14 13 11 10 8 8 8 7 7 5 3 1 2 4 4 5 6 7 7 6 7 6 5
11 11 10 10 10 10 11 12 12 12 12 12 12 11 11 10 10 10 10 8 8 9 10 12 13 13 13 13 13 13 13 12 11 9 8 8 9 9 7 7 7 8 8 7 6 8 13 17 16 12 6 2 5 8 6 10 12 12 16 16 16 18 17 18 16 16 14 12 11 9 8 8 7 7 6 4 1 2 3 2 2 2 3 7 7 6 5 5
12 11 11 10 10 10 11 12 12 12 11 11 11 11 11 10 10 10 10 9 8 9 10 12 13 14 13 13 13 14 13 13 13 10 9 8 8 10 7 5 6 7 8 8 6 8 15 19 17 13 10 6 4 5 5 9 9 10 15 17 16 17 17 18 17 17 16 14 12 10 9 10 10 8 6 4 2 2 2 0 1 0 2 6 6 4 4 5
12 11 11 10 10 9 10 11 12 11 11 11 11 11 10 10 10 10 10 10 9 9 10 11 13 14 14 14 14 14 13 13 14 13 10 8 7 9 8 5 5 7 8 7 6 8 16 18 15 11 9 6 4 4 4 8 10 9 13 17 16 17 17 17 16 16 17 15 14 12 11 12 11 9 6 5 4 3 3 3 2 3 3 5 5 5 4 4
12 11 11 11 10 9 10 11 11 11 11 10 10 11 10 10 10 9 10 10 9 9 9 11 13 14 15 15 15 13 13 14 16 16 13 9 7 7 8 6 5 7 8 8 5 6 10 10 10 9 8 8 6 3 4 9 10 8 11 14 15 16 16 15 15 15 15 14 14 14 12 10 9 9 8 7 6 3 3 3 3 3 3 3 5 5 4 4
11 11 11 11 10 10 10 10 11 11 10 10 10 10 10 10 9 9 10 10 9 9 9 10 12 14 16 16 15 14 14 15 16 16 15 13 10 8 9 8 5 6 7 8 5 4 5 4 7 10 10 8 4 2 3 7 7 7 8 10 12 14 14 13 14 14 14 12 11 10 10 9 9 9 9 7 5 3 3 3 2 4 4 4 4 4 3 3
12 11 10 10 10 10 10 10 11 11 10 9 9 9 9 10 9 9 9 9 9 9 9 10 12 14 15 15 15 16 16 16 16 15 15 14 11 9 9 8 6 5 5 7 6 4 4 4 8 11 9 6 2 4 3 1 3 5 6 6 9 11 10 11 12 13 12 11 9 7 8 10 10 10 9 6 4 3 2 3 3 4 6 5 4 4 3 3
12 11 10 10 10 10 10 10 11 10 10 9 9 9 9 9 9 9 9 9 9 9 9 10 11 13 14 15 16 16 16 16 15 14 14 14 12 11 9 8 8 6 5 5 5 3 3 4 8 7 4 3 2 3 5 3 1 4 6 3 5 8 8 8 9 10 9 8 7 6 9 11 11 11 11 9 7 6 4 3 4 5 6 4 2 3 4 5
12 11 10 10 10 10 10 11 11 10 9 8 8 8 8 9 9 8 9 8 8 9 10 9 10 12 12 14 16 16 17 16 13 12 13 14 14 12 9 9 9 8 6 4 3 2 1 2 5 3 3 3 3 3 7 8 5 5 4 2 2 5 6 5 4 6 7 5 4 4 7 11 11 9 9 9 10 8 4 2 3 3 3 2 1 2 3 3
12 11 11 10 9 9 10 11 11 10 9 7 7 7 7 8 8 8 8 8 8 8 9 9 10 11 11 13 16 16 15 14 12 12 12 13 14 12 11 11 11 10 8 5 3 2 1 2 4 4 2 2 6 7 11 13 11 9 5 4 4 4 6 5 3 2 4 5 4 4 4 9 10 9 8 7 9 9 6 5 3 1 1 2 3 4 4 2
12 11 10 10 9 9 9 10 11 10 9 6 6 7 7 9 9 9 8 8 8 8 9 8 8 10 10 11 12 13 12 12 12 13 13 13 13 13 12 12 12 11 9 6 4 3 2 0 1 2 3 5 6 8 12 15 16 13 8 7 6 3 4 5 5 4 3 2 4 5 4 8 10 9 8 6 7 8 7 6 4 3 3 4 4 4 4 3
11 11 10 9 9 8 8 10 10 9 8 6 6 7 8 9 10 10 10 9 8 9 9 8 8 8 8 8 8 10 10 10 12 13 13 13 13 12 12 11 11 11 9 7 5 3 2 2 5 7 7 6 8 10 13 13 12 10 10 12 11 6 3 4 6 6 5 2 2 6 6 9 10 9 9 7 6 7 6 4 4 3 3 3 3 3 3 3
11 10 9 9 8 8 8 9 9 8 8 6 6 7 8 8 9 11 11 11 10 9 9 8 8 6 7 11 9 6 6 6 9 10 11 12 12 12 12 12 11 10 9 8 6 3 4 4 9 10 4 3 7 11 12 10 7 5 8 13 14 11 8 7 8 8 6 2 4 7 7 9 11 10 10 8 6 6 6 5 5 3 2 3 3 3 2 2
10 10 9 9 8 7 7 9 8 7 7 6 6 7 7 7 9 12 12 11 11 11 11 9 10 9 10 15 12 5 2 3 5 7 8 10 11 12 12 12 12 12 11 10 6 4 5 5 6 5 6 5 3 10 12 11 11 8 9 16 14 11 11 11 10 8 5 3 4 6 7 8 10 11 10 9 6 5 6 7 8 5 3 3 3 2 0 1
10 9 9 9 8 6 7 8 7 6 6 6 6 7 7 7 10 12 10 9 11 11 12 10 11 14 15 17 16 10 5 5 6 7 9 7 8 11 12 12 13 14 12 11 9 6 9 9 9 9 5 6 14 18 15 13 16 12 14 19 15 11 11 11 9 6 5 3 3 5 6 7 8 9 9 8 7 6 8 9 9 7 4 4 3 2 3 3
9 9 9 8 7 5 6 7 7 6 6 6 6 7 7 7 9 10 9 6 7 9 12 12 13 17 16 15 16 12 8 8 7 7 9 8 9 10 10 11 12 13 12 11 11 10 14 16 12 7 13 16 19 16 11 10 9 15 14 16 18 14 11 12 9 5 6 4 4 7 5 6 7 7 8 8 7 8 9 9 8 6 5 6 5 4 4 4
9 9 9 8 5 4 6 7 6 6 7 6 6 7 7 7 7 8 11 8 6 8 9 10 11 16 17 14 15 12 9 11 8 6 7 8 10 10 10 11 10 11 10 11 12 12 16 17 10 11 13 14 16 12 6 6 2 16 17 16 20 14 9 11 12 9 7 4 4 8 7 6 5 4 6 6 7 8 8 8 7 6 6 8 7 5 4 5
9 9 8 7 4 3 6 7 6 7 7 7 6 6 6 6 6 7 11 9 6 6 6 6 9 15 17 13 14 13 9 10 9 8 8 7 7 9 13 12 10 11 10 10 12 14 17 13 6 8 11 14 18 15 6 5 7 9 18 17 17 14 8 10 14 13 9 6 7 9 9 7 4 1 4 4 5 6 6 7 8 6 7 9 8 7 6 6
8 9 8 5 2 3 5 6 6 7 6 6 6 5 5 6 7 7 8 8 5 4 5 7 8 12 16 17 15 12 10 12 10 9 10 8 7 8 12 13 13 12 10 9 8 13 16 10 6 12 15 17 16 12 5 5 11 2 9 11 14 15 10 12 15 15 13 11 11 7 5 5 8 5 2 1 2 2 4 7 7 6 7 9 10 10 9 8
8 9 7 4 1 3 5 6 6 5 4 5 4 4 4 5 6 5 4 5 3 4 5 7 7 8 15 20 17 12 11 11 8 10 13 10 7 6 9 14 15 12 11 9 7 11 15 12 10 14 16 17 14 7 4 5 9 5 6 12 16 13 9 11 12 12 13 12 10 4 0 5 11 10 5 2 2 2 4 7 7 6 7 8 10 12 11 10
8 8 5 2 1 3 4 5 5 4 3 3 2 3 4 4 3 2 2 4 1 4 5 6 8 7 11 16 15 13 9 5 5 13 14 11 9 7 9 13 14 12 13 10 10 13 13 12 10 10 10 13 10 8 4 5 7 5 12 20 16 9 7 9 9 11 11 11 10 4 2 6 11 12 7 4 4 2 3 6 7 6 6 6 8 11 10 10
8 7 4 1 2 2 3 4 4 3 2 2 2 3 4 2 1 1 1 2 3 6 5 6 6 5 7 11 12 11 7 2 5 12 12 10 11 11 11 12 13 14 15 12 14 15 13 13 10 9 7 6 2 5 1 3 6 4 15 19 10 8 9 9 11 11 10 11 11 8 4 4 7 11 10 8 7 4 2 5 6 6 5 5 6 8 9 9
7 6 3 1 2 1 2 3 3 2 2 2 1 1 2 1 1 1 3 1 6 6 5 6 5 4 5 7 9 8 7 6 6 9 13 12 13 13 11 10 13 14 14 14 16 16 15 13 11 12 11 8 3 2 2 4 8 3 16 15 11 13 11 10 12 12 11 9 8 9 7 3 3 10 13 11 9 6 2 3 6 6 5 4 5 7 8 9
6 4 1 1 1 1 1 2 3 1 1 2 1 1 1 1 1 1 3 2 6 5 4 5 4 4 4 5 8 7 10 10 7 11 16 13 11 12 10 10 13 15 16 16 19 19 17 14 12 13 13 11 8 6 4 1 5 9 20 16 15 16 11 10 11 11 9 4 6 7 6 5 3 8 11 7 5 4 2 2 5 7 6 3 4 6 8 10
5 3 1 2 1 1 2 1 1 0 1 1 3 3 2 2 1 1 2 2 3 2 3 7 7 6 6 5 6 8 14 12 7 11 16 13 11 10 11 12 15 17 18 18 20 20 20 18 15 13 10 9 9 11 12 9 3 10 16 11 12 11 9 9 9 7 4 1 7 8 5 4 4 5 5 3 4 4 3 3 7 9 7 4 4 5 7 9
4 2 2 2 2 1 2 1 1 1 2 4 6 5 2 1 1 3 4 2 2 1 1 5 7 5 5 4 3 11 17 12 8 11 15 14 12 10 12 14 16 16 16 18 19 19 20 19 14 11 9 7 10 14 16 14 11 9 8 7 7 5 4 3 2 1 1 2 9 11 6 3 2 4 3 3 6 6 3 5 10 11 8 6 6 6 7 9
3 3 2 2 2 2 1 1 1 2 5 7 8 6 2 1 1 7 9 5 4 2 1 2 4 2 2 1 6 12 14 10 11 13 12 12 11 11 11 13 16 15 13 15 16 15 17 16 12 10 10 9 11 14 16 15 12 12 10 7 5 3 3 2 1 1 2 2 11 14 6 1 3 4 4 5 6 5 3 5 10 11 8 7 7 7 8 9
3 3 3 3 3 2 2 2 1 3 7 9 7 4 3 3 6 12 13 12 12 4 3 1 3 4 1 2 7 11 11 9 12 13 12 11 12 12 12 13 15 15 13 12 12 11 12 12 11 12 11 11 15 13 11 10 9 11 11 8 8 8 4 4 5 4 3 5 12 14 5 1 2 3 5 6 5 5 4 4 8 9 7 6 7 8 8 8
3 3 3 3 4 3 2 2 3 6 9 9 5 3 4 6 9 15 14 15 17 6 3 1 4 5 1 3 6 7 9 10 14 15 14 13 12 13 14 14 14 15 16 13 10 11 13 13 12 13 11 13 17 15 9 9 10 12 15 13 12 13 6 7 6 10 14 10 8 9 3 3 3 4 8 7 6 7 4 5 5 6 7 6 6 8 7 7
3 4 3 4 5 4 3 3 5 7 9 7 4 5 5 7 9 14 16 18 19 11 4 4 6 6 4 5 7 9 10 12 15 17 18 17 15 13 13 14 14 16 19 17 12 11 14 16 12 11 12 13 16 17 14 12 8 10 13 11 10 10 6 10 9 11 16 8 3 5 5 6 6 7 10 9 9 9 6 5 4 4 6 6 6 8 6 5
3 4 3 4 6 5 4 3 6 8 8 5 6 6 6 7 8 13 18 20 18 12 10 7 5 8 9 8 8 9 11 13 15 16 18 18 16 15 13 12 13 15 17 17 16 14 11 14 15 13 13 11 12 15 17 14 7 8 11 5 4 5 5 13 12 8 7 3 2 6 9 11 10 10 14 15 13 11 9 7 4 2 4 5 5 6 4 4
4 3 3 4 5 4 3 4 7 8 7 4 8 9 8 8 7 11 19 24 18 9 9 9 7 4 9 10 9 10 13 15 15 15 18 17 14 14 13 12 13 13 14 14 16 17 13 14 15 14 11 9 6 13 21 19 10 8 10 6 3 3 4 13 14 6 4 2 1 6 10 12 13 13 16 19 19 15 12 10 6 3 3 3 3 4 3 3
5 4 3 3 2 1 2 5 6 6 6 3 9 11 10 9 7 11 20 23 16 9 9 11 11 10 8 9 10 12 16 17 14 13 15 14 13 13 13 13 14 13 13 15 15 14 14 15 16 11 5 7 2 15 24 23 15 10 10 9 8 7 6 6 9 9 9 4 1 5 6 8 14 15 13 16 19 18 14 11 7 4 4 4 3 4 3 3
6 6 4 1 1 3 4 5 5 4 5 3 8 11 13 13 12 15 21 21 15 11 11 11 10 11 12 13 10 13 18 19 15 13 13 11 12 12 10 12 15 15 14 17 15 12 13 16 17 12 6 7 1 15 19 20 19 14 11 11 11 10 9 6 5 9 14 9 3 3 3 8 14 15 13 13 15 15 13 11 7 4 4 4 3 4 3 3
5 6 3 1 2 5 5 7 7 7 7 6 8 10 13 17 19 19 18 17 13 10 9 10 11 11 11 16 14 7 16 19 15 13 13 11 11 11 7 6 11 14 16 20 21 16 13 14 15 15 15 14 7 6 7 11 16 16 14 13 11 11 11 8 3 5 14 16 11 7 5 11 15 14 13 14 13 12 12 10 8 5 4 2 2 4 5 4
4 3 4 3 3 6 8 8 8 7 9 11 12 13 13 14 17 17 14 13 9 7 9 14 18 15 9 13 17 9 10 18 16 13 13 12 12 11 7 5 7 10 11 18 21 15 11 12 13 15 19 20 14 9 7 7 9 14 15 14 12 12 13 8 4 8 15 18 18 13 8 12 17 14 14 16 13 11 12 12 11 8 6 5 4 5 6 4
5 4 6 7 6 9 10 8 7 7 8 10 12 14 14 11 12 14 13 12 9 8 13 16 17 16 13 13 17 14 2 11 12 8 10 11 12 12 9 6 9 10 8 13 18 13 9 12 13 16 21 23 18 12 10 11 12 15 17 16 14 15 16 13 8 15 21 19 18 13 4 11 19 16 14 17 14 11 14 15 14 11 7 7 6 7 6 3
4 4 8 9 8 9 9 6 5 5 5 7 9 12 11 7 9 12 13 13 13 11 13 16 15 15 15 12 12 16 13 6 3 5 4 2 7 10 8 8 8 11 11 10 14 13 10 11 11 11 13 16 14 9 8 9 9 11 13 15 15 15 14 12 11 18 22 21 21 16 7 12 19 17 15 18 16 15 17 17 14 11 8 7 7 7 5 1
5 4 7 10 10 9 6 6 4 4 6 8 9 11 10 6 8 12 12 13 14 10 11 15 13 12 11 8 8 13 16 14 11 12 11 9 8 3 9 14 10 9 10 6 5 7 8 8 8 8 7 6 8 7 6 7 8 6 8 12 13 13 9 8 17 22 19 23 26 19 11 14 20 19 18 20 19 19 19 17 14 10 7 7 7 6 4 2
7 5 5 7 10 8 3 5 4 4 7 9 9 10 11 9 9 9 8 9 10 7 8 11 10 8 8 7 9 12 14 16 14 11 12 13 12 9 8 11 10 8 7 4 1 4 6 6 7 8 10 10 11 11 12 14 15 12 13 15 10 11 9 9 22 23 20 26 27 18 12 16 23 23 22 23 22 21 21 19 15 9 6 6 6 5 4 3
8 7 6 6 7 6 3 3 2 1 4 7 9 10 10 10 10 7 5 5 6 5 6 7 7 9 12 12 13 13 10 11 12 10 9 13 11 9 9 9 10 9 7 4 1 1 4 5 5 7 10 11 13 14 12 13 14 13 15 16 11 9 12 13 18 17 18 23 22 17 14 17 24 25 24 24 23 22 22 19 13 7 5 7 6 4 4 3
8 7 7 6 6 5 4 3 3 2 1 3 6 7 8 10 9 7 4 4 4 6 4 4 7 10 14 15 15 15 10 8 11 10 6 9 10 8 8 8 9 8 6 0 4 3 5 6 5 6 11 12 12 11 10 10 13 14 16 15 12 12 11 14 16 12 12 15 15 17 17 17 22 24 23 23 21 21 21 16 10 6 6 6 5 4 4 3
8 9 8 7 6 5 3 3 3 2 1 1 3 4 5 7 8 8 5 2 3 4 2 5 10 10 11 13 13 13 14 13 14 10 4 6 9 9 8 8 8 6 5 5 6 4 8 8 7 9 13 12 10 9 8 11 14 13 11 4 3 9 7 7 9 5 4 7 10 16 18 16 18 19 19 19 18 19 19 15 11 7 4 3 3 4 5 5
7 9 10 8 7 7 5 6 5 2 1 4 6 5 4 5 5 6 3 1 2 3 3 4 9 10 9 10 9 9 11 14 15 11 4 4 6 9 9 6 6 6 6 9 11 5 6 8 9 10 12 11 11 11 10 16 15 13 12 10 6 6 6 1 3 5 7 9 12 18 20 19 18 17 17 18 19 19 19 17 15 11 5 2 3 3 6 6
5 8 9 9 9 10 10 11 10 4 1 3 6 6 4 3 2 3 3 0 1 4 4 3 5 8 8 7 8 8 8 8 9 8 5 6 8 8 6 5 8 6 4 9 14 8 5 6 6 6 9 10 11 11 13 16 10 15 19 13 8 5 1 2 3 8 13 15 20 24 24 22 20 20 20 19 20 20 17 15 15 13 8 5 3 2 6 7
6 6 7 7 7 9 10 13 14 9 4 3 5 6 4 2 2 2 4 4 5 6 6 5 3 7 9 8 10 12 11 9 7 7 4 3 8 8 6 6 6 3 2 9 13 9 8 8 5 3 6 8 9 10 14 14 8 12 15 11 10 9 6 6 8 11 13 17 24 28 25 19 18 22 23 21 20 18 15 12 10 10 9 7 4 3 7 8
Wind_Direction
334 332 331 329 326 322 317 313 308 304 301 299 296 291 284 271 255 245 235 229 226 221 217 217 217 215 214 212 211 215 211 195 165 138 118 108 104 99 89 77 74 66 53 47 43 44 46 40 33 25 18 20 19 24 40 41 40 30 26 37 46 57 73 89 105 115 117 128 147 151 144 132 132 139 142 143 144 143 142 144 151 148 149 158 143 125 131 146
329 329 328 327 326 323 319 314 310 305 301 300 296 293 289 278 263 249 238 231 227 222 219 217 218 219 217 215 214 216 215 206 179 158 135 122 121 115 99 82 80 64 45 35 32 33 40 35 29 32 29 26 25 27 39 38 42 39 31 41 49 56 68 76 85 93 99 114 140 151 149 138 135 141 140 147 159 151 144 147 158 160 156 155 143 134 142 154
325 325 324 324 324 321 319 316 312 307 303 299 297 295 290 283 271 256 243 233 228 224 221 218 219 219 219 218 216 216 218 212 185 179 160 135 136 129 105 87 86 71 46 36 32 26 28 26 18 35 43 27 32 38 41 36 47 46 35 41 49 54 63 72 79 83 90 96 117 142 152 147 135 145 144 147 156 143 132 132 150 164 155 146 140 142 152 161
322 321 320 319 319 318 317 315 312 309 304 301 298 295 292 287 277 264 249 237 230 226 222 220 219 218 220 220 219 218 218 214 192 192 188 149 146 133 109 94 90 78 54 44 39 31 28 23 9 24 29 8 27 45 39 40 51 46 37 40 49 56 61 68 73 75 86 91 103 126 143 142 135 154 149 140 142 128 120 119 132 152 147 140 137 144 159 162
320 318 317 315 314 314 314 313 313 310 306 302 299 296 294 289 281 272 257 242 233 228 224 221 218 217 219 219 221 219 216 216 199 193 194 167 158 139 114 102 93 89 71 56 48 41 36 28 21 32 10 359 10 41 32 44 49 37 36 41 50 58 60 66 68 68 77 88 101 109 116 118 112 140 141 130 136 128 127 128 133 142 143 144 143 151 165 167
316 316 315 312 310 310 310 311 311 310 307 304 301 298 294 290 285 277 265 250 236 230 227 222 219 215 216 219 221 219 215 212 195 190 195 179 167 156 129 106 99 102 94 75 64 54 45 36 42 86 42 355 14 48 24 38 42 25 39 50 52 57 58 62 67 68 73 81 96 97 96 102 91 100 113 111 147 131 119 125 135 144 155 166 158 163 174 174
314 315 313 310 308 306 307 308 308 310 308 304 302 300 296 291 286 280 271 257 241 233 229 225 220 215 215 217 220 221 217 214 202 187 190 187 173 170 145 106 101 106 102 90 77 60 51 45 44 53 35 346 97 79 29 38 40 27 49 59 55 59 59 62 69 69 71 79 89 95 98 103 94 91 92 88 148 99 85 99 128 146 160 166 163 174 179 167
312 313 312 310 306 304 303 304 306 308 307 305 303 301 299 293 287 282 274 263 248 237 232 227 223 217 214 216 219 221 217 217 214 187 176 183 176 174 155 112 101 92 95 109 99 73 71 67 54 52 73 127 111 90 37 32 37 36 55 62 59 64 63 64 73 74 73 77 82 87 95 103 95 77 71 76 72 76 74 52 82 122 155 157 163 173 162 154
309 312 312 311 306 302 300 300 304 305 306 304 303 303 300 295 290 284 276 267 254 241 234 230 226 220 215 216 218 219 215 215 219 203 179 177 179 181 166 128 107 81 87 105 96 94 97 90 79 77 89 104 119 92 23 7 27 46 59 60 60 66 69 69 73 73 71 75 79 81 92 99 89 70 65 83 83 89 128 167 50 317 145 143 156 157 138 153
307 309 310 312 308 303 298 297 300 302 304 302 302 304 300 297 291 286 279 269 258 246 237 231 228 222 217 216 217 219 215 212 218 214 197 184 183 188 179 151 115 87 86 87 62 88 98 92 90 85 85 114 154 98 29 7 30 52 58 59 59 63 71 74 73 71 68 71 74 77 94 101 89 79 85 108 112 109 147 185 229 229 162 140 153 156 146 159
306 307 308 310 309 304 297 295 297 299 300 299 301 302 300 298 292 288 281 272 263 250 239 232 230 225 220 218 217 218 214 213 216 215 211 204 201 199 193 175 125 101 100 94 73 86 88 86 99 95 95 123 143 108 24 16 37 49 52 58 60 60 68 72 71 72 70 68 68 72 87 96 88 78 83 103 110 118 153 179 222 224 190 168 164 163 169 180
304 305 306 307 307 305 298 294 295 296 296 296 298 300 299 296 292 289 282 276 266 253 243 233 229 227 222 219 218 217 215 213 212 211 213 211 210 210 200 195 161 118 115 113 110 102 75 81 118 108 104 114 141 203 325 9 40 64 57 55 61 63 67 71 70 72 72 66 59 64 72 74 75 68 66 81 90 107 157 164 200 214 205 196 181 178 196 207
303 303 302 303 303 302 299 294 294 296 293 291 294 297 296 294 293 288 282 278 269 257 247 234 229 228 223 221 220 219 220 218 212 209 212 212 210 209 204 203 192 154 135 126 116 98 62 89 124 109 104 110 140 228 243 348 49 92 92 55 61 70 68 69 70 69 70 67 56 48 52 55 57 59 61 63 46 34 99 145 177 210 208 201 194 198 215 233
304 301 301 300 299 299 298 295 294 295 292 287 289 294 294 292 290 287 282 278 271 261 249 237 231 228 223 224 224 221 226 227 217 206 206 210 213 215 213 210 207 191 161 135 116 96 54 123 133 106 93 148 180 232 225 206 115 119 119 75 71 78 68 64 66 61 52 59 67 47 42 48 50 59 67 66 48 35 57 134 172 209 220 218 206 209 234 257
307 301 300 298 297 296 295 295 294 295 295 287 283 288 291 289 288 286 281 276 272 263 251 240 232 228 221 224 227 223 226 232 228 213 202 201 208 214 217 220 218 207 184 160 138 112 36 156 155 129 114 193 251 282 247 237 234 196 151 131 142 94 82 81 71 55 31 27 66 55 39 49 60 68 66 56 45 43 49 92 154 200 232 237 196 186 221 250
311 305 300 298 297 293 292 293 293 296 299 292 280 281 283 281 282 280 277 275 270 263 253 240 233 227 217 221 227 226 227 232 236 234 219 205 207 214 221 223 220 216 204 189 185 172 205 204 190 183 149 283 300 302 264 249 241 223 182 170 182 133 131 143 141 78 31 4 37 71 54 50 65 70 57 45 39 45 49 51 89 110 77 123 134 152 165 157
315 309 301 299 297 293 291 290 293 298 302 299 277 270 270 273 276 273 270 267 260 259 252 239 231 225 219 221 225 228 231 231 231 235 233 222 215 221 228 226 222 220 211 205 209 179 162 134 208 235 295 303 305 303 266 247 236 216 182 189 192 132 133 153 160 135 100 339 25 77 80 56 66 65 52 48 39 46 51 45 60 64 72 104 110 128 148 155
316 311 303 300 295 292 290 287 293 297 302 302 274 261 264 270 275 273 269 263 256 252 245 233 224 217 208 195 197 215 220 226 230 228 232 231 223 227 232 231 229 224 223 224 209 177 191 307 318 304 301 289 289 275 257 259 249 215 187 188 174 153 168 158 140 123 134 210 44 85 79 57 63 61 53 52 44 46 49 39 45 58 69 81 82 98 130 163
316 312 303 297 292 291 287 287 293 296 301 297 270 260 261 269 276 274 270 263 254 241 234 223 203 186 183 176 176 203 211 226 232 223 229 231 225 226 228 232 234 233 238 229 210 220 238 284 303 293 283 281 289 269 270 300 295 245 201 179 159 152 157 144 125 116 146 171 65 86 77 57 57 56 54 54 54 49 40 30 32 46 50 44 69 103 131 156
315 312 303 295 289 288 285 287 293 295 298 292 274 261 257 265 268 270 268 261 253 237 230 217 181 157 157 160 161 172 194 244 229 209 213 215 214 213 214 221 226 233 237 229 227 245 248 269 269 222 152 133 283 281 289 298 270 248 180 167 165 157 139 129 127 121 147 140 64 87 78 62 56 51 53 53 52 44 30 28 28 26 21 22 53 90 47 61
314 311 303 293 286 288 285 287 293 293 292 286 274 260 257 260 264 274 274 253 248 239 232 219 178 164 159 156 163 156 148 226 231 220 217 209 209 201 202 211 218 228 230 231 240 239 240 230 176 167 194 265 293 292 291 285 254 224 172 169 175 163 130 119 129 131 148 146 95 108 84 67 59 44 46 50 41 29 26 30 28 26 32 27 36 36 10 21
312 310 302 292 288 290 283 285 291 289 284 278 264 256 259 260 267 286 289 256 238 235 230 222 188 177 176 175 182 168 155 204 218 221 216 210 216 207 200 208 213 224 226 230 235 231 231 216 191 240 285 293 304 299 290 296 234 185 172 182 179 161 129 123 133 141 157 149 124 133 111 76 69 43 38 42 26 17 23 27 25 23 32 30 36 38 23 25
310 310 303 294 297 293 278 283 287 283 281 271 251 247 254 263 273 288 288 276 243 234 233 225 198 188 192 197 208 201 184 203 204 200 205 201 212 213 207 207 208 216 220 226 227 228 232 228 237 287 302 302 309 308 285 316 214 169 176 193 181 160 131 134 137 137 151 157 144 147 135 104 91 52 32 38 23 11 14 18 13 10 26 33 41 46 31 29
311 310 304 302 314 288 275 283 283 282 281 272 257 252 258 271 276 274 277 278 256 240 231 218 204 196 197 206 226 225 213 220 210 195 203 188 181 195 199 198 197 202 206 215 224 237 239 237 256 285 298 295 304 316 282 295 327 187 190 203 177 147 128 138 132 130 142 165 167 145 126 131 146 42 3 28 34 10 3 15 9 5 30 43 47 48 39 31
313 310 310 321 330 271 276 283 281 285 284 284 282 280 291 286 274 270 276 282 267 218 197 198 202 196 194 203 224 232 231 241 228 204 207 185 162 184 190 189 193 195 189 190 213 244 241 231 260 285 299 302 309 319 264 280 330 287 201 208 161 132 126 137 131 134 149 170 178 158 111 151 182 202 283 355 45 357 2 17 8 8 42 58 45 32 28 25
311 311 325 345 319 263 277 280 282 290 289 293 292 289 299 279 269 282 297 303 275 187 177 179 183 188 193 201 216 226 235 252 237 207 207 185 158 177 186 191 198 194 181 185 217 243 236 228 262 292 305 312 309 284 234 307 339 23 147 165 145 125 121 133 132 142 155 164 170 184 283 171 190 209 242 267 246 307 10 15 2 6 48 66 40 23 20 20
309 319 345 6 276 262 276 280 286 289 282 296 298 287 283 259 268 301 327 335 1 154 156 164 170 178 189 197 207 213 225 263 208 198 204 187 172 190 196 195 198 193 186 204 232 229 227 232 260 295 305 315 299 238 236 302 331 26 142 152 141 122 114 124 137 144 142 134 138 169 205 163 188 214 234 238 235 272 15 8 353 358 38 57 32 18 16 16
316 332 1 0 271 262 277 281 291 289 279 303 307 295 286 261 327 35 342 359 104 125 135 156 161 164 181 197 209 212 210 199 176 195 203 187 185 202 210 203 195 187 189 217 233 219 223 242 266 294 303 326 261 208 323 13 2 34 155 152 126 102 102 129 149 144 138 131 139 170 189 150 191 213 213 219 240 264 358 2 342 342 17 39 17 4 4 7
330 347 8 327 288 281 272 274 292 294 287 311 319 315 282 215 123 50 330 58 132 120 127 152 153 161 181 205 221 221 200 175 148 176 193 188 192 204 213 210 198 190 196 222 235 223 223 242 268 282 284 298 286 272 42 66 21 78 151 137 128 133 123 142 146 132 138 143 148 173 191 171 197 210 204 212 240 263 308 359 339 341 3 20 5 355 358 8
344 1 11 320 331 329 270 279 304 302 309 337 51 73 179 154 56 340 345 85 137 123 139 169 169 186 201 223 239 225 185 173 145 164 187 191 195 204 215 214 204 206 211 222 233 231 228 237 257 272 275 283 294 302 258 246 25 130 142 131 146 152 138 141 136 126 132 145 160 167 193 199 205 218 214 220 249 276 310 340 347 359 5 1 5 9 14 17
358 18 11 340 24 5 305 313 329 335 24 66 115 111 129 123 0 312 28 71 151 149 165 185 193 217 240 259 255 205 174 172 159 171 188 187 182 195 215 218 209 213 220 224 230 234 234 239 250 259 260 263 266 263 257 262 257 153 147 148 158 141 122 126 123 127 121 173 185 160 152 187 214 224 226 252 258 266 300 334 353 10 19 10 16 18 14 15
14 32 14 6 46 16 336 3 13 50 102 120 121 107 114 216 298 0 14 20 220 241 184 194 196 220 263 272 225 184 175 170 156 175 194 193 191 206 220 219 210 212 224 228 230 236 238 240 248 246 230 242 259 256 257 258 249 220 192 189 171 111 96 117 86 145 158 203 182 163 140 145 189 190 207 248 236 246 280 334 353 12 24 17 19 7 354 4
34 37 36 43 40 12 358 15 23 93 126 123 112 100 71 256 31 14 6 8 339 312 136 176 182 152 345 220 164 168 177 175 160 175 202 206 214 229 227 218 211 213 224 229 233 242 244 243 245 236 220 228 247 251 253 255 253 241 231 228 209 147 110 105 343 285 290 210 176 175 180 176 179 191 218 229 216 221 252 330 358 16 23 15 12 358 353 5
50 43 54 62 29 15 11 16 77 125 134 125 109 93 36 33 34 11 10 25 18 19 147 108 170 154 45 131 156 165 179 188 176 184 210 216 221 229 225 219 212 210 217 228 234 231 239 249 231 213 216 227 232 237 243 252 253 236 230 239 245 244 222 186 201 189 142 148 174 190 208 143 164 202 207 216 209 195 223 317 359 18 19 13 360 350 2 8
63 48 53 56 31 18 14 44 117 134 138 130 98 51 36 38 24 8 8 12 8 21 149 146 151 152 151 172 190 203 202 199 190 198 219 229 235 235 232 229 218 210 212 221 227 217 230 241 206 196 230 253 249 243 228 232 243 229 226 239 257 263 232 155 156 161 148 138 166 192 188 111 113 167 186 208 217 205 232 305 336 4 13 10 344 343 2 357
71 53 48 49 29 8 8 78 128 138 139 127 57 28 42 37 15 4 1 354 351 355 335 276 199 191 213 201 215 231 230 213 195 203 221 233 244 247 242 235 224 215 212 216 217 204 223 236 218 219 253 269 268 254 224 215 228 212 218 239 251 249 196 125 114 145 148 134 156 177 160 144 138 168 197 215 224 225 248 281 297 346 5 357 338 343 346 325
84 60 43 42 25 3 9 97 138 142 142 115 39 23 29 27 3 352 352 351 351 346 329 315 222 214 226 217 207 213 226 216 200 208 221 227 240 247 244 232 225 220 214 216 217 208 225 243 235 241 262 276 277 256 227 211 207 191 191 185 169 197 159 130 131 142 137 111 199 180 167 165 163 178 193 201 215 231 241 248 259 320 355 353 354 352 321 302
101 76 58 48 24 357 10 121 140 143 148 101 30 24 18 10 355 346 345 347 351 338 319 344 2 301 250 232 214 209 216 207 201 216 222 224 237 247 245 233 226 223 215 218 223 222 235 251 249 249 266 298 283 235 223 213 215 221 211 206 187 205 157 141 145 158 147 108 204 186 175 179 192 200 195 200 217 230 235 241 248 268 329 352 5 351 324 323
116 109 98 65 35 11 70 116 130 139 148 83 27 25 13 358 353 355 350 347 353 354 337 345 354 339 308 278 248 226 215 200 199 217 218 221 238 249 253 241 232 227 219 219 220 219 226 246 264 257 258 337 297 207 211 207 211 238 238 237 239 247 252 190 166 167 157 145 202 185 186 201 210 218 219 220 227 234 241 246 247 268 315 336 334 331 336 352
132 137 140 144 94 79 75 103 117 122 125 73 27 24 8 352 338 338 345 346 350 358 351 340 331 332 341 335 298 239 217 200 201 220 217 220 242 255 260 242 231 228 225 223 218 215 223 238 260 259 268 330 207 184 199 202 205 221 230 229 221 219 229 214 190 171 157 151 146 145 199 220 209 217 230 234 236 244 251 250 245 269 314 336 338 327 312 322
139 142 139 170 90 71 78 100 106 98 83 43 14 10 358 345 329 323 334 342 344 355 7 9 2 357 360 0 353 283 221 203 200 216 218 228 251 257 258 245 229 221 220 222 219 220 229 236 256 269 281 297 279 212 236 228 220 228 234 235 225 217 217 197 162 156 156 158 161 155 187 207 203 209 222 228 236 245 248 244 238 257 299 304 315 327 300 290
108 98 86 91 77 79 95 102 97 79 54 30 9 354 344 336 323 316 325 334 339 2 22 30 27 20 14 6 9 1 222 205 201 212 219 233 261 267 266 260 221 200 207 219 214 214 232 245 262 274 278 283 282 281 271 233 239 254 246 241 243 244 240 223 156 152 160 164 169 167 175 194 197 203 210 214 225 239 240 235 235 251 280 264 261 313 303 284
86 76 86 84 84 94 94 87 84 67 37 24 12 348 329 320 312 311 322 331 331 352 18 29 24 11 7 7 18 30 61 193 197 224 234 236 268 282 273 253 220 197 195 211 203 199 233 252 262 273 276 274 269 264 247 224 243 261 245 232 240 246 248 253 227 175 165 163 165 162 173 199 195 196 202 204 214 229 229 228 236 251 264 253 263 302 302 285
105 111 111 97 97 100 79 53 70 70 25 9 10 354 334 315 310 313 324 332 328 338 11 22 12 2 5 10 29 43 45 73 96 18 7 284 304 293 240 212 204 183 172 186 193 202 237 253 255 264 278 281 273 266 258 241 251 264 245 239 246 241 240 250 221 177 164 166 169 169 189 202 192 190 195 200 210 221 220 222 234 249 258 254 266 291 289 248
160 159 141 123 118 113 71 23 12 23 16 7 6 3 355 342 323 317 317 321 319 326 6 14 2 357 0 6 36 48 48 48 39 32 41 46 26 16 187 186 178 164 165 174 193 217 249 272 270 251 243 267 274 276 292 310 330 325 285 275 255 229 226 197 177 175 174 178 181 182 188 187 185 190 196 202 212 215 212 214 225 238 254 257 265 276 262 219
190 192 190 152 135 137 101 43 22 11 19 10 1 0 355 348 340 324 309 309 306 313 6 9 356 349 354 7 17 26 44 49 41 42 42 34 41 66 115 150 142 129 156 169 133 206 240 284 305 284 262 258 273 288 302 318 324 314 302 298 262 223 240 200 178 182 185 183 188 200 200 179 180 190 198 204 211 212 209 212 219 224 236 248 259 263 243 226
201 196 209 187 161 176 177 99 83 358 19 7 357 354 340 335 343 336 323 332 323 324 1 9 9 18 25 24 17 17 34 45 45 59 44 21 38 87 102 112 107 109 151 179 33 182 236 277 289 303 301 290 294 303 312 320 317 303 298 304 298 277 274 236 203 198 191 186 191 202 200 182 180 188 198 203 208 212 213 214 212 213 234 245 253 260 244 227
212 199 198 194 190 200 190 162 196 250 348 355 353 345 320 314 327 338 359 29 0 337 351 32 33 41 44 33 22 25 31 31 39 54 43 12 33 83 101 101 103 117 147 32 335 257 257 284 264 282 303 300 299 302 307 316 310 294 290 298 313 316 291 244 233 232 211 202 196 192 194 185 179 187 201 209 212 214 214 209 201 217 248 246 250 257 230 200
220 216 210 209 215 218 191 166 192 232 276 14 17 1 328 316 318 329 352 58 31 356 29 55 33 41 54 39 27 32 30 21 24 32 21 355 15 34 52 80 95 107 113 48 6 273 253 266 259 272 290 293 286 273 291 325 328 320 313 320 4 338 318 222 229 252 231 220 190 176 181 177 178 189 202 211 215 215 214 207 202 221 245 235 243 242 212 188
224 226 226 228 237 246 237 208 204 226 37 75 74 54 8 338 326 335 337 192 55 51 125 79 34 34 40 27 18 22 15 8 15 22 4 316 342 17 32 47 44 51 87 54 19 335 260 264 261 270 288 292 273 263 303 332 343 12 43 88 97 352 345 146 152 131 162 190 169 160 167 172 181 193 199 206 211 212 214 211 211 224 241 254 262 237 205 188
233 227 231 238 245 252 247 227 219 220 161 98 90 74 33 3 356 15 24 80 102 90 105 100 54 37 23 357 348 347 335 341 7 19 358 297 298 333 346 336 2 24 71 32 8 340 287 286 278 276 289 287 276 288 325 332 353 48 59 80 92 55 56 172 142 137 161 174 163 162 170 173 180 189 195 205 210 212 214 211 212 224 237 258 283 239 193 185
258 236 230 238 240 241 237 225 220 208 172 130 118 120 119 120 119 78 68 86 117 114 94 85 59 20 0 327 315 319 311 314 335 345 346 288 285 304 299 293 335 355 323 354 357 338 306 301 296 290 276 268 281 317 332 328 350 47 58 72 75 68 98 131 134 141 155 163 166 172 176 173 176 184 190 198 204 207 209 208 215 230 241 255 269 206 186 182
Height
3181 3181 3180 3179 3179 3178 3178 3177 3177 3177 3177 3177 3178 3179 3179 3180 3180 3181 3181 3182 3183 3183 3184 3185 3186 3186 3187 3188 3189 3190 3191 3192 3193 3193 3194 3194 3194 3194 3194 3194 3194 3193 3193 3193 3192 3192 3191 3190 3188 3187 3185 3183 3182 3181 3179 3181 3182 3182 3182 3180 3178 3177 3177 3177 3177 3177 3178 3178 3179 3180 3182 3183 3183 3184 3185 3185 3186 3186 3185 3186 3187 3187 3188 3188 3189 3189 3189 3189
3181 3180 3180 3179 3178 3178 3177 3177 3176 3176 3176 3176 3177 3177 3178 3178 3179 3179 3180 3181 3182 3182 3183 3184 3185 3186 3187 3188 3189 3190 3191 3192 3193 3193 3194 3194 3195 3194 3194 3195 3195 3194 3193 3193 3192 3192 3192 3191 3190 3188 3186 3185 3183 3181 3182 3184 3184 3183 3183 3182 3180 3179 3178 3179 3179 3179 3180 3180 3180 3181 3183 3183 3184 3185 3185 3186 3186 3186 3186 3187 3188 3188 3188 3189 3189 3190 3190 3190
3181 3180 3179 3178 3178 3177 3176 3176 3175 3175 3175 3175 3175 3176 3176 3177 3178 3178 3179 3180 3180 3181 3182 3183 3184 3185 3186 3187 3188 3189 3190 3191 3192 3193 3193 3194 3195 3194 3195 3195 3195 3194 3194 3193 3192 3192 3192 3192 3191 3189 3186 3185 3185 3184 3185 3186 3185 3185 3185 3183 3181 3180 3180 3180 3180 3180 3181 3182 3182 3183 3184 3184 3185 3185 3186 3186 3187 3187 3187 3188 3188 3189 3189 3189 3190 3191 3191 3191
3180 3179 3179 3178 3177 3177 3176 3175 3175 3174 3174 3174 3174 3175 3175 3176 3176 3177 3178 3178 3179 3180 3181 3182 3183 3184 3185 3186 3187 3188 3189 3191 3192 3192 3193 3194 3194 3195 3195 3195 3195 3195 3194 3193 3192 3192 3191 3191 3189 3188 3186 3185 3186 3187 3187 3186 3186 3186 3185 3184 3182 3182 3181 3181 3181 3181 3182 3183 3183 3184 3184 3185 3185 3186 3187 3187 3187 3188 3188 3189 3189 3190 3190 3190 3191 3192 3192 3192
3180 3179 3178 3177 3177 3176 3175 3175 3174 3173 3173 3173 3173 3173 3174 3174 3175 3175 3176 3177 3178 3179 3179 3180 3181 3183 3184 3185 3186 3187 3188 3190 3191 3192 3192 3193 3194 3195 3195 3195 3195 3195 3195 3194 3193 3192 3192 3191 3189 3188 3187 3186 3187 3189 3188 3187 3186 3186 3186 3185 3184 3183 3182 3182 3182 3182 3183 3183 3184 3185 3185 3186 3186 3187 3188 3188 3188 3189 3189 3189 3190 3190 3191 3191 3192 3192 3192 3192
3179 3178 3178 3177 3176 3175 3175 3174 3173 3173 3172 3172 3172 3172 3173 3173 3173 3174 3175 3176 3177 3177 3178 3179 3180 3181 3183 3184 3185 3186 3187 3189 3190 3191 3192 3193 3194 3195 3195 3196 3196 3195 3195 3195 3194 3194 3194 3193 3192 3191 3189 3187 3188 3189 3188 3186 3186 3187 3187 3186 3185 3184 3183 3183 3183 3183 3184 3184 3185 3185 3186 3186 3187 3188 3188 3189 3189 3189 3189 3190 3190 3191 3191 3192 3192 3193 3193 3193
3178 3178 3177 3176 3176 3175 3174 3173 3173 3172 3172 3171 3171 3171 3171 3172 3172 3173 3173 3174 3175 3176 3177 3178 3179 3180 3181 3183 3184 3185 3186 3188 3190 3191 3192 3192 3193 3194 3195 3195 3195 3195 3195 3195 3194 3194 3194 3193 3192 3192 3190 3189 3190 3189 3188 3186 3187 3188 3186 3186 3186 3185 3185 3184 3184 3184 3184 3185 3185 3186 3186 3187 3187 3188 3189 3189 3189 3189 3189 3190 3190 3191 3191 3191 3192 3192 3193 3193
3178 3177 3176 3176 3175 3174 3174 3173 3172 3172 3171 3171 3170 3170 3170 3170 3171 3171 3172 3173 3174 3175 3175 3176 3177 3179 3180 3181 3183 3184 3186 3187 3189 3190 3191 3192 3193 3194 3195 3195 3195 3195 3195 3195 3194 3193 3193 3192 3192 3193 3192 3191 3191 3190 3188 3187 3188 3188 3187 3187 3187 3187 3187 3186 3185 3185 3185 3186 3186 3187 3187 3187 3188 3188 3189 3189 3189 3189 3189 3189 3190 3190 3190 3191 3192 3192 3192 3193
3177 3176 3176 3175 3174 3174 3173 3172 3172 3171 3170 3170 3170 3169 3169 3169 3170 3170 3170 3171 3172 3173 3174 3175 3176 3177 3179 3180 3182 3183 3185 3186 3188 3190 3191 3192 3193 3194 3194 3195 3195 3194 3194 3194 3194 3193 3193 3191 3191 3193 3193 3193 3193 3191 3190 3189 3190 3189 3188 3188 3188 3188 3188 3188 3187 3187 3187 3187 3187 3187 3188 3188 3188 3188 3188 3188 3188 3188 3188 3189 3189 3189 3189 3190 3190 3191 3192 3192
3176 3175 3175 3174 3174 3173 3172 3172 3171 3170 3170 3169 3169 3169 3168 3168 3168 3169 3169 3170 3171 3172 3172 3173 3174 3176 3177 3179 3180 3182 3184 3185 3187 3188 3190 3191 3192 3193 3194 3194 3195 3194 3194 3194 3194 3194 3193 3192 3193 3194 3194 3194 3193 3193 3192 3192 3191 3190 3189 3188 3188 3189 3189 3189 3189 3188 3188 3188 3188 3188 3188 3188 3188 3187 3187 3186 3187 3187 3188 3188 3188 3187 3188 3189 3189 3190 3191 3191
3175 3174 3174 3173 3173 3172 3172 3171 3170 3170 3169 3169 3168 3168 3167 3167 3167 3167 3168 3168 3169 3170 3171 3172 3173 3174 3176 3177 3179 3181 3182 3184 3185 3187 3189 3191 3192 3193 3194 3194 3194 3194 3194 3194 3195 3195 3194 3193 3194 3194 3194 3194 3194 3194 3193 3193 3191 3191 3190 3189 3189 3189 3190 3190 3190 3190 3189 3189 3189 3188 3188 3188 3188 3187 3187 3187 3187 3187 3187 3187 3187 3187 3188 3188 3189 3190 3190 3191
3174 3173 3173 3172 3172 3171 3171 3170 3169 3169 3168 3168 3168 3167 3167 3166 3166 3166 3166 3167 3168 3169 3169 3170 3171 3173 3174 3176 3177 3179 3180 3182 3184 3186 3188 3189 3191 3192 3193 3194 3194 3194 3194 3194 3195 3195 3194 3194 3195 3194 3194 3194 3194 3194 3193 3193 3192 3191 3191 3190 3190 3190 3190 3190 3190 3190 3190 3190 3190 3189 3189 3188 3188 3187 3187 3188 3188 3188 3188 3187 3187 3188 3188 3189 3189 3189 3190 3190
3173 3172 3172 3171 3171 3170 3170 3169 3168 3168 3167 3167 3167 3166 3166 3165 3165 3165 3165 3166 3166 3167 3168 3169 3170 3171 3173 3174 3176 3177 3178 3180 3182 3184 3186 3188 3190 3191 3192 3193 3194 3194 3194 3194 3195 3195 3195 3195 3195 3194 3194 3193 3194 3194 3193 3193 3193 3192 3192 3191 3190 3191 3191 3191 3191 3191 3191 3191 3191 3190 3189 3188 3188 3187 3187 3188 3189 3189 3188 3187 3187 3188 3188 3188 3189 3189 3189 3190
3172 3171 3171 3170 3170 3169 3169 3168 3167 3167 3166 3166 3166 3166 3165 3165 3164 3164 3164 3164 3165 3166 3166 3167 3169 3170 3171 3173 3174 3176 3177 3179 3181 3184 3186 3187 3189 3190 3191 3192 3193 3193 3193 3193 3194 3194 3195 3195 3195 3194 3194 3193 3193 3194 3194 3193 3193 3192 3192 3192 3191 3191 3191 3192 3192 3192 3191 3191 3191 3190 3189 3188 3188 3187 3187 3188 3189 3189 3188 3188 3187 3188 3188 3188 3189 3189 3189 3189
3170 3170 3169 3169 3168 3168 3167 3167 3166 3166 3166 3165 3165 3165 3165 3164 3164 3163 3163 3163 3164 3164 3165 3166 3167 3169 3170 3171 3172 3174 3176 3177 3180 3183 3185 3186 3188 3189 3191 3191 3192 3192 3192 3193 3193 3194 3194 3194 3194 3194 3193 3193 3192 3193 3193 3194 3193 3193 3192 3192 3192 3192 3191 3191 3192 3192 3192 3191 3191 3190 3189 3189 3188 3188 3188 3188 3188 3188 3188 3188 3188 3188 3188 3188 3189 3189 3188 3188
3169 3169 3168 3168 3167 3167 3166 3166 3165 3165 3165 3165 3164 3164 3164 3163 3163 3162 3162 3162 3163 3163 3163 3165 3166 3167 3169 3170 3171 3173 3175 3177 3179 3181 3183 3185 3187 3188 3189 3190 3191 3191 3192 3192 3192 3193 3193 3193 3193 3193 3193 3192 3192 3192 3192 3193 3193 3193 3193 3192 3192 3192 3191 3191 3191 3192 3192 3192 3191 3190 3190 3190 3189 3189 3189 3189 3189 3189 3189 3188 3188 3188 3188 3188 3188 3188 3188 3188
3168 3167 3167 3166 3166 3166 3165 3164 3164 3164 3164 3164 3163 3163 3162 3162 3161 3161 3161 3161 3162 3162 3162 3164 3165 3166 3168 3169 3170 3172 3174 3176 3177 3179 3181 3183 3185 3186 3187 3189 3190 3191 3191 3192 3192 3192 3192 3192 3192 3193 3192 3192 3191 3191 3191 3191 3191 3192 3192 3192 3192 3192 3191 3191 3191 3192 3193 3192 3191 3191 3191 3190 3190 3190 3189 3189 3189 3189 3189 3188 3188 3188 3188 3188 3188 3188 3187 3187
3167 3166 3165 3165 3165 3164 3164 3163 3163 3163 3163 3163 3162 3162 3162 3161 3161 3161 3160 3160 3160 3160 3161 3162 3164 3165 3167 3168 3170 3171 3173 3175 3176 3178 3180 3182 3184 3185 3186 3188 3189 3190 3191 3191 3191 3192 3191 3191 3191 3191 3190 3190 3190 3190 3189 3187 3187 3189 3190 3191 3191 3191 3191 3191 3191 3192 3192 3192 3192 3192 3191 3191 3190 3190 3190 3189 3189 3189 3189 3188 3188 3188 3188 3188 3188 3187 3186 3185
3165 3165 3164 3164 3163 3163 3163 3162 3162 3162 3162 3162 3161 3161 3161 3160 3160 3160 3159 3159 3159 3159 3160 3161 3163 3164 3165 3167 3169 3170 3172 3173 3175 3177 3178 3180 3182 3184 3185 3187 3188 3189 3190 3190 3190 3191 3190 3190 3190 3189 3188 3188 3188 3187 3186 3184 3185 3188 3189 3190 3190 3189 3190 3190 3190 3191 3192 3192 3192 3192 3191 3190 3190 3190 3190 3189 3189 3189 3189 3188 3188 3188 3188 3187 3187 3186 3185 3184
3164 3163 3163 3162 3162 3162 3161 3161 3161 3161 3161 3161 3160 3160 3160 3160 3159 3158 3158 3158 3158 3158 3159 3160 3162 3163 3164 3165 3167 3168 3170 3172 3174 3176 3177 3179 3180 3182 3184 3185 3187 3188 3188 3189 3190 3190 3190 3189 3189 3186 3185 3186 3186 3187 3185 3183 3186 3188 3188 3190 3190 3189 3189 3190 3189 3190 3191 3191 3191 3192 3191 3191 3190 3190 3190 3189 3189 3189 3188 3188 3188 3187 3187 3187 3186 3185 3184 3184
3163 3162 3162 3161 3161 3161 3160 3160 3160 3160 3160 3160 3159 3159 3159 3159 3158 3157 3157 3157 3157 3157 3158 3159 3161 3162 3162 3163 3164 3166 3169 3171 3172 3174 3176 3177 3179 3180 3182 3184 3185 3187 3188 3189 3189 3189 3188 3187 3185 3184 3184 3185 3186 3187 3185 3183 3185 3187 3188 3189 3188 3189 3190 3190 3191 3191 3191 3191 3191 3191 3191 3190 3190 3190 3189 3189 3189 3189 3188 3188 3188 3187 3187 3187 3186 3185 3184 3184
3162 3161 3160 3160 3160 3160 3159 3159 3159 3159 3159 3158 3158 3158 3158 3158 3157 3157 3156 3156 3155 3156 3156 3158 3160 3161 3161 3162 3163 3164 3167 3170 3171 3173 3175 3176 3177 3179 3181 3183 3184 3185 3187 3188 3188 3188 3186 3184 3183 3184 3185 3184 3184 3185 3184 3184 3184 3185 3187 3187 3187 3189 3190 3191 3192 3191 3192 3191 3191 3191 3190 3190 3190 3190 3190 3189 3189 3188 3188 3188 3188 3187 3187 3187 3186 3185 3184 3184
3160 3160 3159 3159 3159 3159 3158 3158 3158 3158 3158 3157 3157 3157 3157 3157 3157 3156 3155 3155 3155 3155 3155 3156 3159 3161 3161 3162 3163 3163 3165 3169 3171 3172 3173 3175 3176 3178 3180 3181 3183 3184 3185 3186 3187 3186 3184 3183 3183 3185 3184 3183 3183 3183 3184 3186 3184 3183 3185 3186 3186 3188 3189 3190 3191 3191 3191 3192 3191 3191 3191 3190 3190 3190 3190 3189 3189 3188 3188 3188 3188 3187 3187 3187 3186 3185 3184 3184
3159 3159 3158 3158 3158 3158 3158 3158 3158 3157 3157 3156 3156 3156 3156 3156 3156 3156 3155 3154 3154 3154 3154 3156 3157 3159 3161 3162 3162 3163 3165 3167 3169 3171 3172 3173 3175 3176 3178 3180 3182 3183 3184 3185 3185 3185 3184 3184 3185 3184 3183 3183 3182 3182 3184 3185 3185 3184 3182 3183 3185 3186 3187 3188 3188 3189 3190 3191 3191 3191 3191 3191 3190 3190 3189 3189 3189 3189 3189 3188 3188 3187 3187 3186 3186 3185 3185 3184
3158 3158 3157 3158 3158 3157 3157 3157 3157 3157 3156 3156 3156 3156 3156 3156 3155 3155 3154 3154 3153 3153 3153 3154 3156 3158 3160 3161 3161 3162 3165 3166 3168 3170 3171 3172 3174 3175 3177 3178 3180 3181 3183 3184 3185 3184 3183 3184 3185 3184 3182 3182 3183 3183 3183 3183 3184 3184 3182 3182 3184 3185 3186 3186 3186 3187 3189 3191 3191 3190 3191 3192 3191 3190 3190 3189 3189 3189 3189 3188 3188 3187 3187 3187 3186 3185 3185 3184
3157 3157 3157 3157 3157 3156 3156 3156 3156 3156 3156 3156 3155 3155 3156 3155 3155 3155 3154 3153 3152 3152 3153 3154 3155 3157 3158 3160 3161 3162 3164 3165 3167 3168 3169 3171 3173 3174 3176 3177 3178 3180 3182 3183 3184 3182 3182 3183 3184 3183 3182 3182 3182 3182 3182 3183 3183 3183 3182 3183 3184 3185 3186 3185 3185 3186 3188 3189 3190 3190 3191 3192 3191 3191 3190 3190 3190 3190 3189 3188 3188 3187 3187 3187 3186 3185 3184 3184
3157 3156 3157 3157 3156 3156 3156 3156 3155 3156 3155 3155 3155 3155 3155 3154 3154 3155 3154 3153 3153 3152 3153 3154 3155 3157 3158 3159 3160 3161 3163 3164 3165 3166 3168 3170 3172 3173 3175 3176 3177 3179 3181 3182 3182 3181 3180 3182 3183 3183 3182 3181 3181 3181 3182 3183 3183 3182 3183 3184 3185 3185 3185 3184 3185 3186 3187 3188 3189 3190 3190 3190 3191 3190 3191 3191 3190 3190 3189 3188 3188 3187 3187 3187 3186 3186 3185 3185
3156 3156 3156 3156 3156 3156 3155 3155 3155 3155 3155 3155 3155 3155 3155 3154 3155 3154 3154 3154 3154 3153 3153 3155 3156 3156 3157 3159 3160 3161 3162 3163 3164 3165 3166 3169 3171 3172 3174 3175 3176 3178 3180 3181 3180 3179 3179 3180 3182 3182 3181 3181 3181 3181 3182 3182 3183 3182 3182 3184 3184 3183 3183 3184 3185 3186 3187 3188 3189 3190 3190 3190 3190 3190 3190 3191 3190 3190 3189 3188 3188 3187 3187 3187 3187 3186 3186 3185
3156 3156 3156 3156 3156 3155 3155 3155 3155 3155 3155 3155 3155 3155 3155 3155 3155 3154 3154 3154 3154 3153 3154 3155 3156 3157 3157 3158 3159 3160 3162 3163 3164 3165 3166 3168 3170 3171 3173 3175 3176 3177 3178 3179 3178 3177 3178 3179 3180 3180 3180 3180 3181 3181 3182 3182 3183 3182 3182 3184 3184 3183 3183 3185 3186 3187 3187 3188 3189 3189 3189 3189 3190 3189 3189 3190 3189 3189 3189 3188 3188 3187 3187 3187 3187 3187 3186 3185
3156 3156 3156 3155 3155 3155 3155 3155 3155 3155 3155 3155 3155 3155 3155 3155 3155 3155 3155 3155 3154 3154 3155 3156 3156 3157 3157 3158 3158 3159 3161 3162 3163 3164 3166 3168 3169 3171 3172 3174 3175 3175 3176 3177 3177 3176 3177 3178 3179 3179 3179 3179 3180 3181 3182 3183 3184 3183 3183 3184 3184 3184 3184 3186 3187 3187 3188 3189 3189 3189 3189 3189 3189 3188 3187 3188 3188 3188 3188 3188 3187 3187 3187 3187 3187 3187 3186 3185
3155 3155 3155 3155 3155 3155 3155 3155 3155 3155 3155 3155 3155 3155 3155 3156 3156 3155 3156 3156 3155 3155 3155 3156 3156 3157 3157 3158 3158 3159 3160 3161 3162 3163 3165 3167 3168 3170 3171 3172 3173 3174 3174 3175 3175 3175 3175 3176 3178 3178 3178 3178 3178 3179 3180 3182 3184 3185 3185 3184 3184 3184 3185 3187 3188 3188 3188 3189 3189 3188 3189 3189 3188 3187 3186 3186 3187 3187 3187 3187 3187 3187 3187 3187 3187 3187 3187 3186
3155 3155 3155 3155 3155 3155 3155 3155 3155 3155 3155 3155 3155 3156 3156 3156 3156 3156 3156 3156 3156 3156 3155 3155 3156 3156 3157 3157 3157 3158 3159 3161 3161 3163 3165 3166 3168 3169 3170 3171 3172 3173 3173 3173 3175 3175 3174 3175 3177 3178 3178 3178 3178 3178 3178 3180 3182 3184 3185 3185 3184 3185 3186 3189 3190 3189 3189 3188 3187 3188 3189 3189 3188 3187 3186 3185 3186 3187 3187 3187 3187 3187 3187 3187 3187 3187 3187 3186
3156 3156 3156 3156 3155 3155 3155 3155 3155 3155 3155 3156 3156 3156 3156 3156 3156 3156 3156 3156 3156 3156 3155 3156 3156 3156 3156 3157 3157 3158 3160 3161 3161 3163 3165 3166 3167 3168 3169 3170 3170 3171 3172 3173 3174 3175 3174 3175 3176 3176 3177 3177 3178 3177 3177 3178 3180 3181 3183 3183 3184 3184 3187 3191 3192 3191 3189 3188 3187 3189 3189 3188 3188 3186 3186 3185 3185 3187 3187 3187 3187 3187 3187 3187 3187 3187 3186 3186
3156 3156 3156 3156 3156 3155 3155 3155 3155 3155 3156 3156 3156 3156 3156 3155 3155 3155 3155 3155 3156 3156 3156 3156 3156 3156 3157 3157 3158 3158 3159 3161 3162 3163 3164 3165 3166 3167 3167 3168 3169 3170 3171 3172 3173 3174 3174 3174 3173 3174 3175 3176 3176 3176 3176 3177 3178 3179 3180 3181 3181 3181 3183 3187 3188 3188 3188 3187 3188 3189 3189 3188 3188 3186 3186 3186 3186 3186 3186 3186 3186 3187 3187 3187 3187 3187 3187 3186
3156 3156 3156 3156 3156 3156 3156 3155 3155 3156 3156 3157 3157 3157 3156 3156 3156 3156 3155 3155 3156 3157 3157 3157 3156 3157 3157 3158 3158 3158 3159 3160 3162 3163 3164 3164 3164 3165 3165 3166 3168 3169 3170 3170 3171 3172 3173 3172 3171 3172 3174 3174 3174 3174 3176 3176 3176 3177 3178 3179 3179 3178 3178 3180 3183 3183 3183 3186 3188 3189 3189 3188 3187 3187 3187 3187 3186 3186 3186 3186 3186 3187 3187 3187 3187 3187 3187 3186
3156 3156 3156 3156 3156 3156 3156 3155 3156 3156 3157 3158 3158 3158 3157 3157 3157 3157 3157 3156 3157 3158 3158 3158 3158 3157 3157 3157 3158 3158 3159 3160 3161 3162 3162 3163 3163 3163 3163 3164 3165 3167 3167 3168 3169 3170 3171 3169 3169 3171 3172 3172 3172 3173 3174 3175 3174 3175 3176 3177 3177 3177 3177 3178 3181 3183 3183 3186 3189 3188 3188 3188 3187 3187 3187 3186 3185 3185 3185 3185 3186 3187 3187 3187 3187 3187 3187 3186
3156 3157 3156 3156 3156 3156 3156 3156 3156 3157 3158 3158 3159 3158 3157 3158 3158 3158 3157 3157 3157 3157 3158 3157 3158 3157 3156 3156 3157 3157 3158 3159 3161 3161 3161 3162 3161 3161 3161 3162 3163 3164 3165 3167 3168 3168 3169 3167 3167 3168 3169 3169 3169 3170 3172 3173 3173 3174 3175 3176 3176 3176 3176 3176 3180 3185 3186 3188 3189 3187 3187 3187 3187 3186 3185 3185 3185 3184 3184 3185 3186 3187 3187 3187 3187 3187 3186 3185
3157 3157 3157 3157 3157 3157 3157 3156 3157 3158 3158 3159 3159 3159 3158 3158 3158 3158 3158 3157 3156 3156 3157 3157 3157 3158 3157 3156 3156 3156 3156 3158 3160 3160 3159 3160 3160 3158 3159 3161 3161 3162 3163 3165 3167 3167 3169 3167 3165 3166 3168 3167 3167 3168 3170 3172 3172 3172 3173 3175 3175 3175 3176 3175 3178 3182 3184 3188 3188 3186 3186 3187 3185 3183 3182 3182 3182 3182 3184 3185 3186 3186 3187 3187 3187 3186 3185 3185
3157 3157 3157 3157 3157 3157 3157 3157 3157 3158 3159 3160 3160 3159 3159 3158 3157 3158 3158 3157 3156 3155 3156 3157 3157 3157 3157 3157 3156 3155 3155 3156 3157 3157 3157 3159 3158 3157 3158 3159 3160 3161 3162 3164 3165 3166 3168 3166 3163 3164 3165 3165 3164 3165 3167 3170 3171 3171 3172 3173 3173 3174 3175 3175 3175 3176 3178 3184 3186 3185 3186 3186 3183 3181 3180 3180 3181 3182 3184 3185 3185 3186 3186 3187 3187 3186 3185 3184
3157 3157 3158 3157 3157 3157 3157 3157 3158 3159 3160 3161 3161 3160 3159 3157 3156 3157 3157 3156 3156 3155 3155 3156 3157 3157 3156 3156 3155 3154 3154 3154 3155 3156 3156 3157 3156 3156 3156 3157 3158 3159 3161 3163 3164 3165 3167 3166 3163 3162 3163 3164 3164 3165 3167 3168 3169 3169 3169 3170 3171 3172 3172 3173 3174 3173 3174 3179 3183 3185 3186 3184 3180 3179 3179 3179 3181 3182 3183 3184 3185 3186 3186 3187 3186 3185 3185 3184
3157 3158 3158 3158 3157 3157 3158 3158 3159 3160 3161 3161 3161 3160 3159 3158 3156 3156 3156 3155 3156 3156 3155 3155 3156 3156 3155 3154 3153 3153 3153 3154 3154 3154 3155 3155 3155 3155 3155 3155 3156 3158 3160 3161 3162 3164 3165 3165 3164 3162 3162 3163 3164 3165 3167 3168 3168 3168 3168 3168 3169 3170 3170 3171 3173 3173 3173 3175 3178 3181 3182 3180 3177 3177 3177 3178 3181 3182 3182 3183 3184 3185 3186 3186 3186 3185 3184 3184
3157 3157 3158 3158 3158 3158 3158 3159 3160 3160 3161 3161 3161 3160 3159 3159 3158 3156 3155 3155 3155 3156 3156 3155 3155 3154 3154 3154 3153 3151 3151 3153 3154 3154 3155 3155 3154 3155 3155 3155 3155 3157 3158 3159 3161 3163 3164 3164 3164 3163 3161 3162 3164 3165 3165 3166 3167 3167 3167 3167 3168 3169 3169 3169 3171 3172 3172 3174 3175 3177 3178 3176 3176 3176 3176 3178 3180 3180 3181 3182 3183 3185 3185 3185 3185 3184 3184 3184
3157 3156 3157 3157 3158 3158 3158 3159 3160 3160 3160 3160 3160 3160 3159 3159 3158 3156 3156 3155 3154 3155 3155 3154 3154 3154 3154 3154 3153 3151 3150 3153 3154 3154 3154 3154 3155 3155 3155 3155 3155 3157 3158 3159 3160 3163 3164 3163 3163 3162 3161 3160 3162 3163 3164 3165 3166 3165 3166 3166 3166 3167 3167 3168 3169 3169 3170 3172 3173 3176 3177 3175 3174 3176 3176 3177 3178 3179 3180 3181 3182 3183 3184 3184 3184 3183 3183 3183
3156 3156 3156 3157 3157 3158 3158 3159 3160 3160 3160 3160 3160 3160 3159 3159 3158 3156 3156 3155 3154 3155 3155 3154 3155 3154 3154 3155 3155 3153 3151 3152 3154 3154 3153 3153 3153 3153 3153 3154 3155 3156 3158 3159 3160 3162 3162 3162 3163 3163 3162 3161 3161 3162 3163 3164 3164 3163 3164 3164 3165 3165 3165 3166 3167 3167 3169 3170 3170 3172 3173 3172 3173 3175 3175 3176 3177 3178 3179 3180 3181 3183 3183 3183 3183 3183 3183 3183
3156 3156 3157 3157 3157 3157 3158 3159 3159 3159 3160 3160 3159 3159 3159 3158 3158 3157 3156 3156 3155 3155 3155 3155 3156 3155 3154 3155 3155 3154 3153 3153 3154 3153 3152 3152 3152 3150 3151 3154 3155 3156 3158 3159 3160 3161 3161 3161 3162 3163 3163 3163 3163 3162 3162 3163 3162 3162 3162 3162 3163 3164 3163 3164 3166 3166 3167 3168 3168 3168 3169 3170 3173 3174 3174 3175 3176 3177 3178 3180 3181 3182 3183 3183 3182 3182 3182 3182
3156 3157 3157 3157 3157 3157 3158 3160 3160 3160 3160 3159 3159 3159 3158 3158 3158 3157 3156 3156 3156 3156 3156 3155 3155 3155 3154 3153 3154 3154 3154 3154 3153 3152 3152 3153 3153 3151 3152 3154 3155 3156 3158 3159 3159 3160 3161 3161 3161 3161 3162 3162 3162 3162 3163 3163 3163 3163 3162 3160 3161 3163 3162 3162 3163 3163 3164 3165 3166 3167 3167 3169 3171 3172 3173 3174 3175 3176 3177 3179 3180 3182 3182 3182 3182 3182 3182 3182
3156 3156 3157 3157 3157 3157 3159 3160 3161 3161 3161 3160 3159 3159 3159 3158 3158 3157 3156 3156 3156 3155 3156 3156 3155 3155 3153 3153 3154 3155 3155 3154 3153 3152 3153 3153 3153 3153 3153 3153 3154 3155 3156 3158 3159 3159 3160 3160 3161 3161 3161 3161 3160 3161 3163 3164 3163 3163 3161 3159 3159 3161 3160 3160 3160 3160 3161 3163 3165 3166 3167 3168 3170 3172 3172 3173 3174 3176 3177 3179 3181 3182 3182 3181 3181 3181 3182 3181
3155 3156 3156 3157 3157 3157 3159 3160 3160 3160 3160 3159 3158 3159 3159 3158 3158 3157 3157 3156 3155 3154 3155 3156 3156 3156 3155 3155 3156 3156 3155 3155 3154 3154 3154 3154 3153 3153 3153 3153 3153 3154 3155 3156 3158 3159 3159 3160 3160 3160 3160 3160 3159 3160 3162 3163 3162 3161 3160 3159 3159 3158 3157 3157 3158 3159 3160 3161 3162 3165 3167 3169 3170 3171 3172 3173 3175 3176 3178 3179 3181 3181 3181 3181 3181 3181 3181 3181
3154 3155 3156 3157 3157 3157 3158 3159 3159 3159 3158 3158 3158 3158 3159 3158 3158 3158 3158 3157 3156 3155 3155 3155 3156 3156 3156 3157 3157 3157 3156 3156 3157 3157 3156 3156 3155 3154 3154 3154 3154 3155 3156 3156 3157 3158 3159 3159 3160 3160 3159 3158 3158 3159 3161 3161 3161 3160 3158 3158 3157 3157 3156 3155 3156 3158 3159 3160 3161 3164 3167 3169 3169 3170 3172 3174 3175 3176 3178 3179 3180 3180 3180 3180 3180 3180 3180 3180
3154 3154 3155 3156 3156 3157 3157 3157 3157 3157 3158 3157 3157 3158 3159 3159 3158 3158 3158 3158 3158 3157 3156 3155 3155 3154 3155 3157 3158 3158 3158 3159 3159 3159 3158 3158 3157 3156 3156 3155 3155 3155 3156 3156 3157 3158 3159 3158 3159 3159 3159 3158 3158 3158 3159 3160 3160 3158 3157 3156 3156 3157 3157 3156 3156 3157 3159 3161 3162 3164 3167 3168 3169 3170 3172 3173 3174 3175 3176 3177 3178 3179 3179 3179 3179 3179 3179 3179
3153 3153 3154 3155 3155 3155 3155 3155 3156 3157 3157 3157 3157 3157 3158 3158 3158 3157 3157 3157 3158 3157 3156 3156 3155 3155 3156 3157 3157 3158 3158 3159 3159 3160 3160 3158 3158 3157 3157 3157 3157 3157 3157 3157 3157 3158 3159 3158 3158 3159 3159 3158 3158 3157 3158 3159 3158 3156 3157 3157 3156 3156 3157 3156 3156 3157 3158 3160 3163 3164 3165 3167 3167 3168 3170 3172 3173 3175 3176 3177 3177 3178 3178 3178 3178 3178 3178 3179
3151 3152 3153 3154 3154 3153 3153 3153 3155 3156 3156 3156 3156 3155 3155 3156 3156 3156 3156 3156 3157 3157 3157 3156 3156 3156 3157 3157 3157 3157 3158 3158 3158 3159 3159 3158 3158 3157 3158 3157 3157 3158 3158 3158 3158 3158 3159 3158 3158 3158 3159 3158 3159 3158 3157 3156 3156 3156 3157 3158 3158 3157 3157 3157 3156 3157 3158 3159 3160 3162 3163 3165 3166 3167 3168 3169 3171 3173 3175 3176 3177 3177 3177 3177 3177 3178 3178 3178